Flag for Finland Weather past 2 weeks in Joensuu, Finland

36 °F

Light rain. Low clouds.

Feels Like: 27 °F
Forecast: 34 / 40 °F
Wind: 12 mph from South

Location: Joensuu Airport

Current Time: Nov 26, 2015 at 2:50:01 AM

Latest Report: Nov 26, 2015 at 1:50 AM

Visibility: 6 mi

Pressure: 29.68 "Hg

Humidity: 93%

Dew point: 34 °F

Location of JoensuuLocation

Historic Weather in Joensuu — Graph


Joensuu temperature yesterday

Maximum temperature yesterday: 36 °F (at 2:50 PM)
Minimum temperature yesterday: 32 °F (at 12:50 AM)
Average temperature yesterday: 34 °F

Past Weeks' High & Low Weather Summary

High37 °F (Nov 14, 4:50 AM)100% (Nov 11, 12:50 AM)29.98 "Hg (Nov 11, 12:50 AM)
Low23 °F (Nov 24, 3:20 PM)93% (Nov 14, 3:20 AM)29.06 "Hg (Nov 21, 3:50 PM)
Average31 °F99%29.56 "Hg
* Reported Nov 11 12:50 AM — Nov 26 12:20 AM, Joensuu, Weather by CustomWeather, © 2015

Note: Actual official high and low records may vary slightly from our data, if they occured in-between our weather recording intervals... More about our weather records


Joensuu weather history for previous 24 hours

Time TempWeatherWind HumidityBarometerVisibility
12:20 AM
Thu, Nov 26
34 °FLight rain. Low clouds.10 mph100%29.65 "Hg4 mi
11:50 PM
Wed, Nov 25
34 °FLight rain. Low clouds.10 mph100%29.65 "Hg4 mi
11:20 PM34 °FLight rain. Low clouds.10 mph100%29.65 "Hg4 mi
10:50 PM34 °FLight rain. Low clouds.9 mph100%29.65 "Hg4 mi
10:20 PM36 °FLight rain. Low clouds.9 mph93%29.65 "Hg3 mi
9:50 PM36 °FLight rain. Low clouds.10 mph93%29.65 "Hg3 mi
9:20 PM36 °FLight rain. Fog.10 mph93%29.65 "Hg2 mi
8:50 PM36 °FLight rain. Fog.10 mph100%29.65 "Hg3 mi
8:20 PM36 °FLight rain. Fog.12 mph100%29.65 "Hg3 mi
7:50 PM36 °FLight rain. Low clouds.10 mph100%29.65 "Hg3 mi
7:20 PM36 °FLight rain. Low clouds.12 mph100%29.65 "Hg3 mi
6:50 PM36 °FLow clouds.10 mph100%29.65 "Hg6 mi
6:20 PM36 °FLow clouds.10 mph100%29.65 "HgN/A
5:50 PM36 °FSprinkles. Low clouds.10 mph100%29.65 "Hg5 mi
5:20 PM36 °FLow clouds.8 mph100%29.65 "HgN/A
4:50 PM36 °FMostly cloudy.9 mph100%29.65 "HgN/A
4:20 PM36 °FLow clouds.8 mph100%29.65 "HgN/A
3:50 PM36 °FLow clouds.9 mph100%29.65 "Hg5 mi
3:20 PM36 °FFog.8 mph100%29.65 "Hg1 mi
2:50 PM36 °FFog.8 mph100%29.65 "Hg1 mi
2:20 PM34 °FFog.8 mph100%29.65 "Hg1 mi
1:50 PM34 °FFog.9 mph100%29.68 "Hg1 mi
1:20 PM34 °FFog.8 mph100%29.68 "Hg1 mi
12:50 PM34 °FFog.8 mph100%29.65 "Hg1 mi
12:20 PM34 °FFog.9 mph100%29.68 "Hg1 mi
11:50 AM34 °FFog.8 mph100%29.68 "Hg3 mi
11:20 AM34 °FLow clouds.9 mph100%29.68 "Hg3 mi
10:50 AM34 °FLow clouds.12 mph100%29.68 "Hg6 mi
10:20 AM34 °FLow clouds.13 mph100%29.68 "Hg5 mi
9:50 AM34 °FLow clouds.10 mph100%29.68 "Hg3 mi
8:50 AM34 °FSprinkles. Low clouds.9 mph100%29.68 "HgN/A
7:50 AM34 °FSprinkles. Low clouds.8 mph100%29.68 "HgN/A
7:20 AM34 °FSprinkles. Low clouds.10 mph100%29.68 "Hg5 mi
6:50 AM34 °FLow clouds.9 mph100%29.68 "Hg4 mi
6:20 AM34 °FLight snow. Low clouds.9 mph100%29.68 "HgN/A
5:50 AM32 °FLight rain. Low clouds.9 mph100%29.68 "Hg3 mi
5:20 AM32 °FLight rain. Low clouds.9 mph100%29.71 "Hg4 mi
4:50 AM32 °FLight rain. Low clouds.10 mph100%29.71 "Hg6 mi
4:20 AM32 °FSprinkles. Low clouds.9 mph100%29.71 "HgN/A
3:50 AM32 °FLow clouds.8 mph100%29.71 "HgN/A
3:20 AM32 °FLight rain. Low clouds.8 mph100%29.71 "Hg5 mi
2:50 AM32 °FLight rain. Low clouds.9 mph100%29.74 "HgN/A
Weather by CustomWeather, © 2015

See weather overviewHow to use our weather pages